Location: Unspecified
(0.0000°N, 0.0000°E)
Time: 11:02:56
(UTC+00:00)

ACS3 Solar Sail - Pass Details

Date: 18 May 2025
Orbit: 935 x 1009 km, 97.5° (Epoch: 13 May)

Event Time Altitude Azimuth Distance (km) Brightness Sun altitude
Rises 05:26:35 0° 9° (N) 3,640 5.2 -7.0°
Reaches altitude 10° 05:29:00 10° 9° (N) 2,706 4.5 -6.5°
Maximum altitude 05:35:06 82° 282° (WNW) 996 1.9 -5.0°
Drops below altitude 10° 05:41:21 10° 194° (SSW) 2,763 3.9 -3.6°
Sets 05:43:51 0° 193° (SSW) 3,722 4.5 -3.0°
